GW5555 Weather Reports


time (UTC)temp
F
wind
direction
speed
knots
gust
knots
rain 1hr
in
rain 24hr
in
rain mn
in
humidity
%
barometer
mb
20260504110259 43 308 7.8 9.6 0.00 0.00 0.00 69 1011.3
20260504100217 42 351 10.4 12.2 0.00 0.00 0.00 70 1011.3
20260504090139 42 33 14.8 16.5 0.00 0.00 0.00 70 1009.8
20260504081610 44 2 20.0 25.2 0.00 0.00 0.00 65 1009.5
20260504081105 44 24 18.2 21.7 0.00 0.00 0.00 64 1009.4
20260504080602 44 18 14.8 20.0 0.00 0.00 0.00 63 1009.2
20260504050415 52 34 15.6 16.5 0.00 0.00 0.00 40 1006.9
20260504045912 52 40 20.0 23.5 0.00 0.00 0.00 40 1006.9
20260504045408 52 45 20.9 22.6 0.00 0.00 0.00 40 1006.7
20260504044904 52 58 8.7 9.6 0.00 0.00 0.00 43 1007.0
20260504044402 52 36 13.9 18.2 0.00 0.00 0.00 44 1006.8
20260504043859 53 32 16.5 19.1 0.00 0.00 0.00 44 1006.2
20260504043356 53 42 17.4 19.1 0.00 0.00 0.00 43 1006.2
20260504042853 54 22 13.0 15.6 0.00 0.00 0.00 45 1006.1
20260504042349 55 40 20.9 26.1 0.00 0.00 0.00 43 1005.9
20260504041846 55 19 16.5 22.6 0.00 0.00 0.00 42 1005.7
20260504041342 56 26 12.2 14.8 0.00 0.00 0.00 41 1005.8
20260504040838 55 16 12.2 13.9 0.00 0.00 0.00 42 1005.4
20260504040336 56 12 12.2 13.9 0.00 0.00 0.00 40 1005.2
20260504035831 57 29 11.3 13.0 0.00 0.00 0.00 40 1005.3
20260504035330 57 29 9.6 13.0 0.00 0.00 0.00 39 1004.9
20260504034826 57 21 10.4 12.2 0.00 0.00 0.00 39 1005.1
20260504034324 57 25 13.0 14.8 0.00 0.00 0.00 38 1004.9
20260504033821 57 42 8.7 9.6 0.00 0.00 0.00 38 1004.8
20260504033319 57 1 13.0 15.6 0.00 0.00 0.00 38 1004.8
20260504032815 58 30 13.0 16.5 0.00 0.00 0.00 38 1004.6
20260504032312 58 17 11.3 13.9 0.00 0.00 0.00 38 1004.4
20260504031809 58 16 13.0 13.9 0.00 0.00 0.00 39 1004.6
20260504031307 58 31 11.3 12.2 0.00 0.00 0.00 39 1004.5
20260504030803 58 24 13.0 14.8 0.00 0.00 0.00 39 1004.4
20260504030300 58 31 13.0 14.8 0.00 0.00 0.00 39 1004.3
20260504025756 59 40 13.0 15.6 0.00 0.00 0.00 39 1004.1
20260504025253 59 39 13.9 16.5 0.00 0.00 0.00 39 1004.1
20260504024749 59 24 8.7 11.3 0.00 0.00 0.00 39 1004.0
20260504024246 59 37 13.0 14.8 0.00 0.00 0.00 39 1004.1
20260504023743 60 37 10.4 13.0 0.00 0.00 0.00 39 1003.9
20260504023239 60 30 13.0 15.6 0.00 0.00 0.00 38 1004.1
20260504022735 60 36 11.3 13.9 0.00 0.00 0.00 38 1003.9
20260504022232 61 42 11.3 13.9 0.00 0.00 0.00 36 1004.1
20260504021729 62 21 7.8 8.7 0.00 0.00 0.00 34 1004.0
20260504021226 62 34 5.2 6.1 0.00 0.00 0.00 33 1004.1
20260504020723 63 40 10.4 11.3 0.00 0.00 0.00 32 1004.2
20260504020220 63 19 6.1 7.8 0.00 0.00 0.00 32 1004.1
20260504015716 64 30 4.3 5.2 0.00 0.00 0.00 29 1003.8
20260504015212 65 32 7.8 9.6 0.00 0.00 0.00 28 1004.0
20260504014708 65 25 6.1 7.8 0.00 0.00 0.00 28 1004.0
20260504014205 66 29 4.3 5.2 0.00 0.00 0.00 27 1004.2
20260504013703 66 344 7.8 7.8 0.00 0.00 0.00 26 1004.2
20260504013200 66 13 6.1 7.8 0.00 0.00 0.00 26 1004.3
20260504012656 67 357 8.7 11.3 0.00 0.00 0.00 25 1004.1
20260504012155 68 1 11.3 12.2 0.00 0.00 0.00 26 1004.1
20260504011651 68 30 7.8 11.3 0.00 0.00 0.00 25 1004.3
20260504011148 68 13 6.1 7.8 0.00 0.00 0.00 25 1004.1
20260504010643 68 10 7.8 8.7 0.00 0.00 0.00 25 1004.2
20260504010139 69 12 7.8 9.6 0.00 0.00 0.00 25 1004.0
20260504005637 69 8 6.1 7.0 0.00 0.00 0.00 25 1004.1
20260504005133 69 13 9.6 11.3 0.00 0.00 0.00 25 1004.1
20260504004632 69 19 9.6 13.0 0.00 0.00 0.00 25 1004.2
20260504004128 69 354 11.3 13.9 0.00 0.00 0.00 25 1004.3
20260504003624 70 353 4.3 6.1 0.00 0.00 0.00 26 1004.5
20260504003121 70 17 9.6 12.2 0.00 0.00 0.00 25 1004.4
20260504002618 70 16 11.3 13.0 0.00 0.00 0.00 25 1004.5
20260504002116 70 334 8.7 12.2 0.00 0.00 0.00 25 1004.4
20260504001614 70 4 10.4 13.0 0.00 0.00 0.00 25 1004.4
20260504001109 70 350 11.3 13.0 0.00 0.00 0.00 25 1004.8
20260504000607 70 0 6.1 7.8 0.00 0.00 0.00 26 1004.6
20260504000104 70 3 7.8 8.7 0.00 0.00 0.00 25 1004.6
20260503235602 70 8 11.3 12.2 0.00 0.00 0.00 25 1004.8
20260503235058 70 319 8.7 9.6 0.00 0.00 0.00 24 1004.6
20260503234556 71 352 10.4 12.2 0.00 0.00 0.00 25 1004.8
20260503234054 71 2 9.6 9.6 0.00 0.00 0.00 25 1004.8
20260503233550 69 13 10.4 12.2 0.00 0.00 0.00 25 1004.8
20260503233046 70 340 7.0 7.8 0.00 0.00 0.00 25 1004.9
20260503232544 70 0 11.3 13.9 0.00 0.00 0.00 25 1004.8
20260503232041 71 21 9.6 12.2 0.00 0.00 0.00 25 1004.9
20260503231539 71 10 7.0 7.8 0.00 0.00 0.00 25 1005.0
20260503231035 70 166 3.5 3.5 0.00 0.00 0.00 25 1004.9
20260503230532 70 333 10.4 12.2 0.00 0.00 0.00 24 1005.0
20260503230030 71 20 10.4 11.3 0.00 0.00 0.00 24 1005.1
20260503225526 70 318 6.1 8.7 0.00 0.00 0.00 24 1004.9
20260503225021 70 293 10.4 12.2 0.00 0.00 0.00 24 1005.2
20260503224519 71 340 5.2 7.0 0.00 0.00 0.00 24 1005.1
20260503224017 71 318 8.7 9.6 0.00 0.00 0.00 24 1005.2
20260503223515 71 284 13.9 16.5 0.00 0.00 0.00 24 1005.2
20260503223010 71 306 7.0 12.2 0.00 0.00 0.00 24 1005.2
20260503222508 71 303 8.7 11.3 0.00 0.00 0.00 24 1005.0
20260503222006 71 329 3.5 6.1 0.00 0.00 0.00 25 1005.4
20260503221504 71 338 9.6 15.6 0.00 0.00 0.00 24 1005.2
20260503221001 70 10 6.1 7.8 0.00 0.00 0.00 25 1005.2
20260503220457 70 11 5.2 7.0 0.00 0.00 0.00 25 1005.4
20260503215954 70 296 6.1 7.8 0.00 0.00 0.00 25 1005.4
20260503215451 70 345 7.8 9.6 0.00 0.00 0.00 24 1005.5
20260503214948 70 283 7.0 7.8 0.00 0.00 0.00 25 1005.8
20260503214446 70 8 4.3 5.2 0.00 0.00 0.00 25 1005.9
20260503213943 70 319 9.6 12.2 0.00 0.00 0.00 25 1005.8
20260503213442 70 316 14.8 15.6 0.00 0.00 0.00 24 1005.9
20260503212937 70 266 6.1 7.0 0.00 0.00 0.00 25 1005.7
20260503212435 70 2 7.0 7.8 0.00 0.00 0.00 25 1006.0
20260503211932 70 281 5.2 6.1 0.00 0.00 0.00 26 1006.0
20260503211429 69 297 11.3 15.6 0.00 0.00 0.00 25 1006.0
20260503210924 70 288 6.1 7.0 0.00 0.00 0.00 25 1006.2
20260503210422 70 307 7.0 8.7 0.00 0.00 0.00 25 1006.4
20260503205916 70 290 6.1 9.6 0.00 0.00 0.00 25 1006.4
20260503205414 69 355 7.0 8.7 0.00 0.00 0.00 25 1006.3
20260503204910 69 6 7.8 8.7 0.00 0.00 0.00 25 1006.4
20260503204408 69 318 6.1 7.0 0.00 0.00 0.00 25 1006.3
20260503203904 70 266 10.4 13.0 0.00 0.00 0.00 25 1006.7
20260503203401 68 277 8.7 13.0 0.00 0.00 0.00 26 1007.0
20260503202858 69 308 9.6 11.3 0.00 0.00 0.00 25 1006.6
20260503202356 69 281 13.9 15.6 0.00 0.00 0.00 26 1006.7
20260503201855 70 300 6.1 7.8 0.00 0.00 0.00 26 1006.8
20260503201351 68 276 6.1 7.0 0.00 0.00 0.00 26 1006.9
20260503200849 69 274 7.0 7.8 0.00 0.00 0.00 27 1006.8
20260503200344 68 6 3.5 3.5 0.00 0.00 0.00 27 1006.8
20260503195842 69 337 11.3 13.9 0.00 0.00 0.00 27 1006.8
20260503195338 68 274 3.5 6.1 0.00 0.00 0.00 26 1007.6
20260503194836 68 329 7.8 11.3 0.00 0.00 0.00 27 1007.1
20260503194331 69 5 9.6 11.3 0.00 0.00 0.00 27 1007.3
20260503193828 69 340 6.1 7.8 0.00 0.00 0.00 27 1007.3
20260503193324 69 12 4.3 6.1 0.00 0.00 0.00 27 1007.6
20260503192820 68 323 6.1 7.0 0.00 0.00 0.00 28 1007.3
20260503192315 67 316 6.1 7.8 0.00 0.00 0.00 28 1007.4
20260503191812 67 325 9.6 11.3 0.00 0.00 0.00 27 1007.6
20260503191309 67 274 8.7 9.6 0.00 0.00 0.00 28 1007.6
20260503190806 67 323 3.5 3.5 0.00 0.00 0.00 30 1007.9
20260503190303 68 296 4.3 6.1 0.00 0.00 0.00 27 1007.8
20260503185800 67 310 10.4 12.2 0.00 0.00 0.00 28 1007.9
20260503185255 66 344 6.1 7.0 0.00 0.00 0.00 28 1008.0
20260503184755 67 321 5.2 7.0 0.00 0.00 0.00 29 1007.9
20260503184252 0 0.0 0.0 0.00 0.00 0.00 1007.9
20260503183748 0 0.0 0.0 0.00 0.00 0.00 1008.0
20260503183245 0 0.0 0.0 0.00 0.00 0.00 1008.3
20260503182743 0 0.0 0.0 0.00 0.00 0.00 1008.0
20260503182242 0 0.0 0.0 0.00 0.00 0.00 1008.2
20260503181738 0 0.0 0.0 0.00 0.00 0.00 1008.1
20260503181235 0 0.0 0.0 0.00 0.00 0.00 1008.3
20260503180731 0 0.0 0.0 0.00 0.00 0.00 1008.3
20260503180230 0 0.0 0.0 0.00 0.00 0.00 1008.5
20260503175726 0 0.0 0.0 0.00 0.00 0.00 1008.6
20260503175224 0 0.0 0.0 0.00 0.00 0.00 1008.3
20260503174720 66 311 4.3 7.0 0.00 0.00 0.00 29 1008.3
20260503174218 66 311 4.3 7.0 0.00 0.00 0.00 29 1008.5
20260503173713 66 355 8.7 8.7 0.00 0.00 0.00 28 1008.5
20260503173209 65 358 8.7 9.6 0.00 0.00 0.00 29 1008.6
20260503172706 66 18 9.6 12.2 0.00 0.00 0.00 29 1008.8
20260503172203 66 5 8.7 12.2 0.00 0.00 0.00 29 1009.0
20260503171659 66 12 7.8 9.6 0.00 0.00 0.00 30 1008.7
20260503171157 64 19 7.0 7.8 0.00 0.00 0.00 31 1008.7
20260503170654 64 9 9.6 13.0 0.00 0.00 0.00 29 1008.7
20260503170151 64 17 8.7 13.0 0.00 0.00 0.00 29 1008.9
20260503160113 63 29 10.4 14.8 0.00 0.00 0.00 33 1008.7
20260503150542 60 29 7.8 11.3 0.00 0.00 0.00 33 1009.0
20260503130932 48 12 0.9 1.7 0.00 0.00 0.00 68 1009.4
20260503130430 47 314 1.7 2.6 0.00 0.00 0.00 68 1009.2